owner,sensor,date,latitude,longitude,vertical_datum,sea_water_practical_salinity,qcFlag 
DISL,ioos:station:DISL:KATA:1,2012-12-01T00:00:00Z,30.2583,-88.2131,4.108,27.25,1111122 
DISL,ioos:station:DISL:KATA:1,2012-12-01T00:30:00Z,30.2583,-88.2131,4.141,27.38,1111122 
DISL,ioos:station:DISL:KATA:1,2012-12-01T01:00:00Z,30.2583,-88.2131,4.162,27.47,1111122 
DISL,ioos:station:DISL:KATA:1,2012-12-01T01:30:00Z,30.2583,-88.2131,4.188,27.66,1111122 
DISL,ioos:station:DISL:KATA:1,2012-12-01T02:00:00Z,30.2583,-88.2131,4.221,27.78,1111122 
DISL,ioos:station:DISL:KATA:1,2012-12-01T02:30:00Z,30.2583,-88.2131,4.249,27.93,1111122 
DISL,ioos:station:DISL:KATA:1,2012-12-01T03:00:00Z,30.2583,-88.2131,4.278,28.01,1111122 
DISL,ioos:station:DISL:KATA:1,2012-12-01T03:30:00Z,30.2583,-88.2131,4.293,28.35,1111122 
DISL,ioos:station:DISL:KATA:1,2012-12-01T04:00:00Z,30.2583,-88.2131,4.303,28.56,1111122 
DISL,ioos:station:DISL:KATA:1,2012-12-01T04:30:00Z,30.2583,-88.2131,4.3,28.64,1111122 
DISL,ioos:station:DISL:KATA:1,2012-12-01T05:00:00Z,30.2583,-88.2131,4.284,28.76,1111122 
DISL,ioos:station:DISL:KATA:1,2012-12-01T05:30:00Z,30.2583,-88.2131,4.262,28.81,1111122 
DISL,ioos:station:DISL:KATA:1,2012-12-01T06:00:00Z,30.2583,-88.2131,4.231,28.82,1111122 
DISL,ioos:station:DISL:KATA:1,2012-12-01T06:30:00Z,30.2583,-88.2131,4.209,28.83,1111122 
DISL,ioos:station:DISL:KATA:1,2012-12-01T07:00:00Z,30.2583,-88.2131,4.182,28.86,1111122 
DISL,ioos:station:DISL:KATA:1,2012-12-01T07:30:00Z,30.2583,-88.2131,4.164,28.87,1111122 
DISL,ioos:station:DISL:KATA:1,2012-12-01T08:00:00Z,30.2583,-88.2131,4.136,28.89,1111122 
DISL,ioos:station:DISL:KATA:1,2012-12-01T08:30:00Z,30.2583,-88.2131,4.105,28.82,1111122 
DISL,ioos:station:DISL:KATA:1,2012-12-01T09:00:00Z,30.2583,-88.2131,4.079,28.82,1111122 
DISL,ioos:station:DISL:KATA:1,2012-12-01T09:30:00Z,30.2583,-88.2131,4.037,28.75,1111122 
DISL,ioos:station:DISL:KATA:1,2012-12-01T10:00:00Z,30.2583,-88.2131,3.991,28.68,1111122 
DISL,ioos:station:DISL:KATA:1,2012-12-01T10:30:00Z,30.2583,-88.2131,3.952,28.57,1111122 
DISL,ioos:station:DISL:KATA:1,2012-12-01T11:00:00Z,30.2583,-88.2131,3.906,28.46,1111122 
DISL,ioos:station:DISL:KATA:1,2012-12-01T11:30:00Z,30.2583,-88.2131,3.866,28.28,1111122 
DISL,ioos:station:DISL:KATA:1,2012-12-01T12:00:00Z,30.2583,-88.2131,3.832,28.05,1111122 
DISL,ioos:station:DISL:KATA:1,2012-12-01T12:30:00Z,30.2583,-88.2131,3.808,27.86,1111122 
DISL,ioos:station:DISL:KATA:1,2012-12-01T13:00:00Z,30.2583,-88.2131,3.783,27.6,1111122 
DISL,ioos:station:DISL:KATA:1,2012-12-01T13:30:00Z,30.2583,-88.2131,3.782,27.32,1111122 
DISL,ioos:station:DISL:KATA:1,2012-12-01T14:00:00Z,30.2583,-88.2131,3.773,27.35,1111122 
DISL,ioos:station:DISL:KATA:1,2012-12-01T14:30:00Z,30.2583,-88.2131,3.775,28.11,1111122 
DISL,ioos:station:DISL:KATA:1,2012-12-01T15:00:00Z,30.2583,-88.2131,3.788,27.96,1111122 
DISL,ioos:station:DISL:KATA:1,2012-12-01T15:30:00Z,30.2583,-88.2131,3.783,28.06,1111122 
DISL,ioos:station:DISL:KATA:1,2012-12-01T16:00:00Z,30.2583,-88.2131,3.79,28.31,1111122 
DISL,ioos:station:DISL:KATA:1,2012-12-01T16:30:00Z,30.2583,-88.2131,3.806,28.35,1111122 
DISL,ioos:station:DISL:KATA:1,2012-12-01T17:00:00Z,30.2583,-88.2131,3.809,28.32,1111122 
DISL,ioos:station:DISL:KATA:1,2012-12-01T17:30:00Z,30.2583,-88.2131,3.826,28.27,1111122 
DISL,ioos:station:DISL:KATA:1,2012-12-01T18:00:00Z,30.2583,-88.2131,3.839,28.45,1111122 
DISL,ioos:station:DISL:KATA:1,2012-12-01T18:30:00Z,30.2583,-88.2131,3.852,28.55,1111122 
DISL,ioos:station:DISL:KATA:1,2012-12-01T19:00:00Z,30.2583,-88.2131,3.868,28.58,1111122 
DISL,ioos:station:DISL:KATA:1,2012-12-01T19:30:00Z,30.2583,-88.2131,3.889,28.85,1111122 
DISL,ioos:station:DISL:KATA:1,2012-12-01T20:00:00Z,30.2583,-88.2131,3.905,29.03,1111122 
DISL,ioos:station:DISL:KATA:1,2012-12-01T20:30:00Z,30.2583,-88.2131,3.925,29.08,1111122 
DISL,ioos:station:DISL:KATA:1,2012-12-01T21:00:00Z,30.2583,-88.2131,3.95,29.16,1111122 
DISL,ioos:station:DISL:KATA:1,2012-12-01T21:30:00Z,30.2583,-88.2131,3.96,29.25,1111122 
DISL,ioos:station:DISL:KATA:1,2012-12-01T22:00:00Z,30.2583,-88.2131,3.975,29.28,1111122 
DISL,ioos:station:DISL:KATA:1,2012-12-01T22:30:00Z,30.2583,-88.2131,3.993,29.3,1111122 
DISL,ioos:station:DISL:KATA:1,2012-12-01T23:00:00Z,30.2583,-88.2131,4.007,29.34,1111122 
DISL,ioos:station:DISL:KATA:1,2012-12-01T23:30:00Z,30.2583,-88.2131,4.021,29.36,1111122 
DISL,ioos:station:DISL:KATA:1,2012-12-02T00:00:00Z,30.2583,-88.2131,4.043,29.36,1111122 
DISL,ioos:station:DISL:KATA:1,2012-12-02T00:30:00Z,30.2583,-88.2131,4.066,29.37,1111122 
DISL,ioos:station:DISL:KATA:1,2012-12-02T01:00:00Z,30.2583,-88.2131,4.087,29.39,1111122 
DISL,ioos:station:DISL:KATA:1,2012-12-02T01:30:00Z,30.2583,-88.2131,4.12,29.37,1111122 
DISL,ioos:station:DISL:KATA:1,2012-12-02T02:00:00Z,30.2583,-88.2131,4.152,29.37,1111122 
DISL,ioos:station:DISL:KATA:1,2012-12-02T02:30:00Z,30.2583,-88.2131,4.183,29.41,1111122 
DISL,ioos:station:DISL:KATA:1,2012-12-02T03:00:00Z,30.2583,-88.2131,4.211,29.54,1111122 
DISL,ioos:station:DISL:KATA:1,2012-12-02T03:30:00Z,30.2583,-88.2131,4.234,29.69,1111122 
DISL,ioos:station:DISL:KATA:1,2012-12-02T04:00:00Z,30.2583,-88.2131,4.248,29.76,1111122 
DISL,ioos:station:DISL:KATA:1,2012-12-02T04:30:00Z,30.2583,-88.2131,4.26,29.86,1111122 
DISL,ioos:station:DISL:KATA:1,2012-12-02T05:00:00Z,30.2583,-88.2131,4.26,29.92,1111122 
DISL,ioos:station:DISL:KATA:1,2012-12-02T05:30:00Z,30.2583,-88.2131,4.254,30.03,1111122 
DISL,ioos:station:DISL:KATA:1,2012-12-02T06:00:00Z,30.2583,-88.2131,4.236,30.06,1111122 
DISL,ioos:station:DISL:KATA:1,2012-12-02T06:30:00Z,30.2583,-88.2131,4.218,30.1,1111122 
DISL,ioos:station:DISL:KATA:1,2012-12-02T07:00:00Z,30.2583,-88.2131,4.203,30.11,1111122 
DISL,ioos:station:DISL:KATA:1,2012-12-02T07:30:00Z,30.2583,-88.2131,4.182,30.13,1111122 
DISL,ioos:station:DISL:KATA:1,2012-12-02T08:00:00Z,30.2583,-88.2131,4.155,30.29,1111122 
DISL,ioos:station:DISL:KATA:1,2012-12-02T08:30:00Z,30.2583,-88.2131,4.125,30.34,1111122 
DISL,ioos:station:DISL:KATA:1,2012-12-02T09:00:00Z,30.2583,-88.2131,4.088,30.3,1111122 
DISL,ioos:station:DISL:KATA:1,2012-12-02T09:30:00Z,30.2583,-88.2131,4.047,30.2,1111122 
DISL,ioos:station:DISL:KATA:1,2012-12-02T10:00:00Z,30.2583,-88.2131,3.999,30.1,1111122 
DISL,ioos:station:DISL:KATA:1,2012-12-02T10:30:00Z,30.2583,-88.2131,3.951,29.94,1111122 
DISL,ioos:station:DISL:KATA:1,2012-12-02T11:00:00Z,30.2583,-88.2131,3.901,29.79,1111122 
DISL,ioos:station:DISL:KATA:1,2012-12-02T11:30:00Z,30.2583,-88.2131,3.851,29.69,1111122 
DISL,ioos:station:DISL:KATA:1,2012-12-02T12:00:00Z,30.2583,-88.2131,3.806,29.6,1111122 
DISL,ioos:station:DISL:KATA:1,2012-12-02T12:30:00Z,30.2583,-88.2131,3.766,29.57,1111122 
DISL,ioos:station:DISL:KATA:1,2012-12-02T13:00:00Z,30.2583,-88.2131,3.729,29.46,1111122 
DISL,ioos:station:DISL:KATA:1,2012-12-02T13:30:00Z,30.2583,-88.2131,3.697,29.4,1111122 
DISL,ioos:station:DISL:KATA:1,2012-12-02T14:00:00Z,30.2583,-88.2131,3.674,29.29,1111122 
DISL,ioos:station:DISL:KATA:1,2012-12-02T14:30:00Z,30.2583,-88.2131,3.664,29.07,1111122 
DISL,ioos:station:DISL:KATA:1,2012-12-02T15:00:00Z,30.2583,-88.2131,3.669,28.74,1111122 
DISL,ioos:station:DISL:KATA:1,2012-12-02T15:30:00Z,30.2583,-88.2131,3.675,29.1,1111122 
DISL,ioos:station:DISL:KATA:1,2012-12-02T16:00:00Z,30.2583,-88.2131,3.686,29.14,1111122 
DISL,ioos:station:DISL:KATA:1,2012-12-02T16:30:00Z,30.2583,-88.2131,3.7,29.3,1111122 
DISL,ioos:station:DISL:KATA:1,2012-12-02T17:00:00Z,30.2583,-88.2131,3.714,29.34,1111122 
DISL,ioos:station:DISL:KATA:1,2012-12-02T17:30:00Z,30.2583,-88.2131,3.73,29.3,1111122 
DISL,ioos:station:DISL:KATA:1,2012-12-02T18:00:00Z,30.2583,-88.2131,3.741,30.01,1111122 
DISL,ioos:station:DISL:KATA:1,2012-12-02T18:30:00Z,30.2583,-88.2131,3.757,30.16,1111122 
DISL,ioos:station:DISL:KATA:1,2012-12-02T19:00:00Z,30.2583,-88.2131,3.777,30.25,1111122 
DISL,ioos:station:DISL:KATA:1,2012-12-02T19:30:00Z,30.2583,-88.2131,3.801,30.2,1111122 
DISL,ioos:station:DISL:KATA:1,2012-12-02T20:00:00Z,30.2583,-88.2131,3.822,30.25,1111122 
DISL,ioos:station:DISL:KATA:1,2012-12-02T20:30:00Z,30.2583,-88.2131,3.846,30.38,1111122 
DISL,ioos:station:DISL:KATA:1,2012-12-02T21:00:00Z,30.2583,-88.2131,3.873,30.66,1111122 
DISL,ioos:station:DISL:KATA:1,2012-12-02T21:30:00Z,30.2583,-88.2131,3.896,30.68,1111122 
DISL,ioos:station:DISL:KATA:1,2012-12-02T22:00:00Z,30.2583,-88.2131,3.913,30.7,1111122 
DISL,ioos:station:DISL:KATA:1,2012-12-02T22:30:00Z,30.2583,-88.2131,3.945,30.7,1111122 
DISL,ioos:station:DISL:KATA:1,2012-12-02T23:00:00Z,30.2583,-88.2131,3.972,30.68,1111122 
DISL,ioos:station:DISL:KATA:1,2012-12-02T23:30:00Z,30.2583,-88.2131,3.999,30.67,1111122 
DISL,ioos:station:DISL:KATA:1,2012-12-03T00:00:00Z,30.2583,-88.2131,4.026,30.66,1111122 
DISL,ioos:station:DISL:KATA:1,2012-12-03T00:30:00Z,30.2583,-88.2131,4.054,30.67,1111122 
DISL,ioos:station:DISL:KATA:1,2012-12-03T01:00:00Z,30.2583,-88.2131,4.077,30.69,1111122 
DISL,ioos:station:DISL:KATA:1,2012-12-03T01:30:00Z,30.2583,-88.2131,4.102,30.68,1111122 
DISL,ioos:station:DISL:KATA:1,2012-12-03T02:00:00Z,30.2583,-88.2131,4.132,30.66,1111122 
DISL,ioos:station:DISL:KATA:1,2012-12-03T02:30:00Z,30.2583,-88.2131,4.158,30.67,1111122 
DISL,ioos:station:DISL:KATA:1,2012-12-03T03:00:00Z,30.2583,-88.2131,4.189,30.67,1111122 
DISL,ioos:station:DISL:KATA:1,2012-12-03T03:30:00Z,30.2583,-88.2131,4.213,30.66,1111122 
DISL,ioos:station:DISL:KATA:1,2012-12-03T04:00:00Z,30.2583,-88.2131,4.239,30.66,1111122 
DISL,ioos:station:DISL:KATA:1,2012-12-03T04:30:00Z,30.2583,-88.2131,4.258,30.66,1111122 
DISL,ioos:station:DISL:KATA:1,2012-12-03T05:00:00Z,30.2583,-88.2131,4.267,30.67,1111122 
DISL,ioos:station:DISL:KATA:1,2012-12-03T05:30:00Z,30.2583,-88.2131,4.262,30.71,1111122 
DISL,ioos:station:DISL:KATA:1,2012-12-03T06:00:00Z,30.2583,-88.2131,4.247,30.75,1111122 
DISL,ioos:station:DISL:KATA:1,2012-12-03T06:30:00Z,30.2583,-88.2131,4.217,30.78,1111122 
DISL,ioos:station:DISL:KATA:1,2012-12-03T07:00:00Z,30.2583,-88.2131,4.192,30.8,1111122 
DISL,ioos:station:DISL:KATA:1,2012-12-03T07:30:00Z,30.2583,-88.2131,4.163,30.82,1111122 
DISL,ioos:station:DISL:KATA:1,2012-12-03T08:00:00Z,30.2583,-88.2131,4.144,30.82,1111122 
DISL,ioos:station:DISL:KATA:1,2012-12-03T08:30:00Z,30.2583,-88.2131,4.123,30.82,1111122 
DISL,ioos:station:DISL:KATA:1,2012-12-03T09:00:00Z,30.2583,-88.2131,4.098,30.82,1111122 
DISL,ioos:station:DISL:KATA:1,2012-12-03T09:30:00Z,30.2583,-88.2131,4.069,30.79,1111122 
DISL,ioos:station:DISL:KATA:1,2012-12-03T10:00:00Z,30.2583,-88.2131,4.032,30.72,1111122 
DISL,ioos:station:DISL:KATA:1,2012-12-03T10:30:00Z,30.2583,-88.2131,3.983,30.66,1111122 
DISL,ioos:station:DISL:KATA:1,2012-12-03T11:00:00Z,30.2583,-88.2131,3.941,30.59,1111122 
DISL,ioos:station:DISL:KATA:1,2012-12-03T11:30:00Z,30.2583,-88.2131,3.886,30.52,1111122 
DISL,ioos:station:DISL:KATA:1,2012-12-03T12:00:00Z,30.2583,-88.2131,3.841,30.48,1111122 
DISL,ioos:station:DISL:KATA:1,2012-12-03T12:30:00Z,30.2583,-88.2131,3.799,30.43,1111122 
DISL,ioos:station:DISL:KATA:1,2012-12-03T13:00:00Z,30.2583,-88.2131,3.765,30.4,1111122 
DISL,ioos:station:DISL:KATA:1,2012-12-03T13:30:00Z,30.2583,-88.2131,3.737,30.34,1111122 
DISL,ioos:station:DISL:KATA:1,2012-12-03T14:00:00Z,30.2583,-88.2131,3.716,30.31,1111122 
DISL,ioos:station:DISL:KATA:1,2012-12-03T14:30:00Z,30.2583,-88.2131,3.697,30.25,1111122 
DISL,ioos:station:DISL:KATA:1,2012-12-03T15:00:00Z,30.2583,-88.2131,3.705,30.31,1111122 
DISL,ioos:station:DISL:KATA:1,2012-12-03T15:30:00Z,30.2583,-88.2131,3.702,30.33,1111122 
DISL,ioos:station:DISL:KATA:1,2012-12-03T16:00:00Z,30.2583,-88.2131,3.715,30.36,1111122 
DISL,ioos:station:DISL:KATA:1,2012-12-03T16:30:00Z,30.2583,-88.2131,3.73,30.37,1111122 
DISL,ioos:station:DISL:KATA:1,2012-12-03T17:00:00Z,30.2583,-88.2131,3.75,30.37,1111122 
DISL,ioos:station:DISL:KATA:1,2012-12-03T17:30:00Z,30.2583,-88.2131,3.763,30.39,1111122 
DISL,ioos:station:DISL:KATA:1,2012-12-03T18:00:00Z,30.2583,-88.2131,3.783,30.48,1111122 
DISL,ioos:station:DISL:KATA:1,2012-12-03T18:30:00Z,30.2583,-88.2131,3.797,30.55,1111122 
DISL,ioos:station:DISL:KATA:1,2012-12-03T19:00:00Z,30.2583,-88.2131,3.818,30.55,1111122 
DISL,ioos:station:DISL:KATA:1,2012-12-03T19:30:00Z,30.2583,-88.2131,3.838,30.73,1111122 
DISL,ioos:station:DISL:KATA:1,2012-12-03T20:00:00Z,30.2583,-88.2131,3.859,30.83,1111122 
DISL,ioos:station:DISL:KATA:1,2012-12-03T20:30:00Z,30.2583,-88.2131,3.881,30.91,1111122 
DISL,ioos:station:DISL:KATA:1,2012-12-03T21:00:00Z,30.2583,-88.2131,3.902,30.95,1111122 
DISL,ioos:station:DISL:KATA:1,2012-12-03T21:30:00Z,30.2583,-88.2131,3.922,30.98,1111122 
DISL,ioos:station:DISL:KATA:1,2012-12-03T22:00:00Z,30.2583,-88.2131,3.939,31.03,1111122 
DISL,ioos:station:DISL:KATA:1,2012-12-03T22:30:00Z,30.2583,-88.2131,3.958,31.04,1111122 
DISL,ioos:station:DISL:KATA:1,2012-12-03T23:00:00Z,30.2583,-88.2131,3.979,31.06,1111122 
DISL,ioos:station:DISL:KATA:1,2012-12-03T23:30:00Z,30.2583,-88.2131,4.0,31.07,1111122 
DISL,ioos:station:DISL:KATA:1,2012-12-04T00:00:00Z,30.2583,-88.2131,4.024,31.07,1111122 
DISL,ioos:station:DISL:KATA:1,2012-12-04T00:30:00Z,30.2583,-88.2131,4.052,31.07,1111122 
DISL,ioos:station:DISL:KATA:1,2012-12-04T01:00:00Z,30.2583,-88.2131,4.068,31.08,1111122 
DISL,ioos:station:DISL:KATA:1,2012-12-04T01:30:00Z,30.2583,-88.2131,4.086,31.12,1111122 
DISL,ioos:station:DISL:KATA:1,2012-12-04T02:00:00Z,30.2583,-88.2131,4.115,31.15,1111122 
DISL,ioos:station:DISL:KATA:1,2012-12-04T02:30:00Z,30.2583,-88.2131,4.138,31.17,1111122 
DISL,ioos:station:DISL:KATA:1,2012-12-04T03:00:00Z,30.2583,-88.2131,4.171,31.19,1111122 
DISL,ioos:station:DISL:KATA:1,2012-12-04T03:30:00Z,30.2583,-88.2131,4.201,31.2,1111122 
DISL,ioos:station:DISL:KATA:1,2012-12-04T04:00:00Z,30.2583,-88.2131,4.223,31.21,1111122 
DISL,ioos:station:DISL:KATA:1,2012-12-04T04:30:00Z,30.2583,-88.2131,4.241,31.21,1111122 
DISL,ioos:station:DISL:KATA:1,2012-12-04T05:00:00Z,30.2583,-88.2131,4.255,31.21,1111122 
DISL,ioos:station:DISL:KATA:1,2012-12-04T05:30:00Z,30.2583,-88.2131,4.258,31.24,1111122 
DISL,ioos:station:DISL:KATA:1,2012-12-04T06:00:00Z,30.2583,-88.2131,4.25,31.23,1111122 
DISL,ioos:station:DISL:KATA:1,2012-12-04T06:30:00Z,30.2583,-88.2131,4.252,31.22,1111122 
DISL,ioos:station:DISL:KATA:1,2012-12-04T07:00:00Z,30.2583,-88.2131,4.238,31.23,1111122 
DISL,ioos:station:DISL:KATA:1,2012-12-04T07:30:00Z,30.2583,-88.2131,4.227,31.24,1111122 
DISL,ioos:station:DISL:KATA:1,2012-12-04T08:00:00Z,30.2583,-88.2131,4.215,31.24,1111122 
DISL,ioos:station:DISL:KATA:1,2012-12-04T08:30:00Z,30.2583,-88.2131,4.193,31.23,1111122 
DISL,ioos:station:DISL:KATA:1,2012-12-04T09:00:00Z,30.2583,-88.2131,4.177,31.24,1111122 
DISL,ioos:station:DISL:KATA:1,2012-12-04T09:30:00Z,30.2583,-88.2131,4.159,31.23,1111122 
DISL,ioos:station:DISL:KATA:1,2012-12-04T10:00:00Z,30.2583,-88.2131,4.133,31.22,1111122 
DISL,ioos:station:DISL:KATA:1,2012-12-04T10:30:00Z,30.2583,-88.2131,4.104,31.21,1111122 
DISL,ioos:station:DISL:KATA:1,2012-12-04T11:00:00Z,30.2583,-88.2131,4.07,31.2,1111122 
DISL,ioos:station:DISL:KATA:1,2012-12-04T11:30:00Z,30.2583,-88.2131,4.035,31.19,1111122 
DISL,ioos:station:DISL:KATA:1,2012-12-04T12:00:00Z,30.2583,-88.2131,4.001,31.16,1111122 
DISL,ioos:station:DISL:KATA:1,2012-12-04T12:30:00Z,30.2583,-88.2131,3.966,31.1,1111122 
DISL,ioos:station:DISL:KATA:1,2012-12-04T13:00:00Z,30.2583,-88.2131,3.934,31.05,1111122 
DISL,ioos:station:DISL:KATA:1,2012-12-04T13:30:00Z,30.2583,-88.2131,3.905,31.01,1111122 
DISL,ioos:station:DISL:KATA:1,2012-12-04T14:00:00Z,30.2583,-88.2131,3.88,30.88,1111122 
DISL,ioos:station:DISL:KATA:1,2012-12-04T14:30:00Z,30.2583,-88.2131,3.859,30.82,1111122 
DISL,ioos:station:DISL:KATA:1,2012-12-04T15:00:00Z,30.2583,-88.2131,3.842,30.99,1111122 
DISL,ioos:station:DISL:KATA:1,2012-12-04T15:30:00Z,30.2583,-88.2131,3.84,30.95,1111122 
DISL,ioos:station:DISL:KATA:1,2012-12-04T16:00:00Z,30.2583,-88.2131,3.845,30.94,1111122 
DISL,ioos:station:DISL:KATA:1,2012-12-04T16:30:00Z,30.2583,-88.2131,3.854,30.9,1111122 
DISL,ioos:station:DISL:KATA:1,2012-12-04T17:00:00Z,30.2583,-88.2131,3.854,30.96,1111122 
DISL,ioos:station:DISL:KATA:1,2012-12-04T17:30:00Z,30.2583,-88.2131,3.864,31.01,1111122 
DISL,ioos:station:DISL:KATA:1,2012-12-04T18:00:00Z,30.2583,-88.2131,3.876,30.9,1111122 
DISL,ioos:station:DISL:KATA:1,2012-12-04T18:30:00Z,30.2583,-88.2131,3.881,31.01,1111122 
DISL,ioos:station:DISL:KATA:1,2012-12-04T19:00:00Z,30.2583,-88.2131,3.886,31.0,1111122 
DISL,ioos:station:DISL:KATA:1,2012-12-04T19:30:00Z,30.2583,-88.2131,3.89,31.0,1111122 
DISL,ioos:station:DISL:KATA:1,2012-12-04T20:00:00Z,30.2583,-88.2131,3.891,31.02,1111122 
DISL,ioos:station:DISL:KATA:1,2012-12-04T20:30:00Z,30.2583,-88.2131,3.904,31.03,1111122 
DISL,ioos:station:DISL:KATA:1,2012-12-04T21:00:00Z,30.2583,-88.2131,3.923,31.01,1111122 
DISL,ioos:station:DISL:KATA:1,2012-12-04T21:30:00Z,30.2583,-88.2131,3.944,30.99,1111122 
DISL,ioos:station:DISL:KATA:1,2012-12-04T22:00:00Z,30.2583,-88.2131,3.958,31.01,1111122 
DISL,ioos:station:DISL:KATA:1,2012-12-04T22:30:00Z,30.2583,-88.2131,3.975,31.03,1111122 
DISL,ioos:station:DISL:KATA:1,2012-12-04T23:00:00Z,30.2583,-88.2131,3.998,31.04,1111122 
DISL,ioos:station:DISL:KATA:1,2012-12-04T23:30:00Z,30.2583,-88.2131,4.004,31.04,1111122 
DISL,ioos:station:DISL:KATA:1,2012-12-05T00:00:00Z,30.2583,-88.2131,4.021,31.06,1111122 
DISL,ioos:station:DISL:KATA:1,2012-12-05T00:30:00Z,30.2583,-88.2131,4.039,31.15,1111122 
DISL,ioos:station:DISL:KATA:1,2012-12-05T01:00:00Z,30.2583,-88.2131,4.057,31.21,1111122 
DISL,ioos:station:DISL:KATA:1,2012-12-05T01:30:00Z,30.2583,-88.2131,4.078,31.28,1111122 
DISL,ioos:station:DISL:KATA:1,2012-12-05T02:00:00Z,30.2583,-88.2131,4.094,31.33,1111122 
DISL,ioos:station:DISL:KATA:1,2012-12-05T02:30:00Z,30.2583,-88.2131,4.111,31.38,1111122 
DISL,ioos:station:DISL:KATA:1,2012-12-05T03:00:00Z,30.2583,-88.2131,4.133,31.4,1111122 
DISL,ioos:station:DISL:KATA:1,2012-12-05T03:30:00Z,30.2583,-88.2131,4.158,31.43,1111122 
DISL,ioos:station:DISL:KATA:1,2012-12-05T04:00:00Z,30.2583,-88.2131,4.164,31.44,1111122 
DISL,ioos:station:DISL:KATA:1,2012-12-05T04:30:00Z,30.2583,-88.2131,4.168,31.46,1111122 
DISL,ioos:station:DISL:KATA:1,2012-12-05T05:00:00Z,30.2583,-88.2131,4.168,31.49,1111122 
DISL,ioos:station:DISL:KATA:1,2012-12-05T05:30:00Z,30.2583,-88.2131,4.16,31.49,1111122 
DISL,ioos:station:DISL:KATA:1,2012-12-05T06:00:00Z,30.2583,-88.2131,4.169,31.5,1111122 
DISL,ioos:station:DISL:KATA:1,2012-12-05T06:30:00Z,30.2583,-88.2131,4.165,31.52,1111122 
DISL,ioos:station:DISL:KATA:1,2012-12-05T07:00:00Z,30.2583,-88.2131,4.163,31.53,1111122 
DISL,ioos:station:DISL:KATA:1,2012-12-05T07:30:00Z,30.2583,-88.2131,4.153,31.54,1111122 
DISL,ioos:station:DISL:KATA:1,2012-12-05T08:00:00Z,30.2583,-88.2131,4.139,31.54,1111122 
DISL,ioos:station:DISL:KATA:1,2012-12-05T08:30:00Z,30.2583,-88.2131,4.118,31.54,1111122 
DISL,ioos:station:DISL:KATA:1,2012-12-05T09:00:00Z,30.2583,-88.2131,4.102,31.54,1111122 
DISL,ioos:station:DISL:KATA:1,2012-12-05T09:30:00Z,30.2583,-88.2131,4.089,31.54,1111122 
DISL,ioos:station:DISL:KATA:1,2012-12-05T10:00:00Z,30.2583,-88.2131,4.06,31.54,1111122 
DISL,ioos:station:DISL:KATA:1,2012-12-05T10:30:00Z,30.2583,-88.2131,4.03,31.53,1111122 
DISL,ioos:station:DISL:KATA:1,2012-12-05T11:00:00Z,30.2583,-88.2131,3.991,31.52,1111122 
DISL,ioos:station:DISL:KATA:1,2012-12-05T11:30:00Z,30.2583,-88.2131,3.959,31.5,1111122 
DISL,ioos:station:DISL:KATA:1,2012-12-05T12:00:00Z,30.2583,-88.2131,3.926,31.49,1111122 
DISL,ioos:station:DISL:KATA:1,2012-12-05T12:30:00Z,30.2583,-88.2131,3.884,31.47,1111122 
DISL,ioos:station:DISL:KATA:1,2012-12-05T13:00:00Z,30.2583,-88.2131,3.854,31.43,1111122 
DISL,ioos:station:DISL:KATA:1,2012-12-05T13:30:00Z,30.2583,-88.2131,3.831,31.4,1111122 
DISL,ioos:station:DISL:KATA:1,2012-12-05T14:00:00Z,30.2583,-88.2131,3.813,31.37,1111122 
DISL,ioos:station:DISL:KATA:1,2012-12-05T14:30:00Z,30.2583,-88.2131,3.803,31.1,1111122 
DISL,ioos:station:DISL:KATA:1,2012-12-05T15:00:00Z,30.2583,-88.2131,3.79,31.09,1111122 
DISL,ioos:station:DISL:KATA:1,2012-12-05T15:30:00Z,30.2583,-88.2131,3.796,31.31,1111122 
DISL,ioos:station:DISL:KATA:1,2012-12-05T16:00:00Z,30.2583,-88.2131,3.81,31.32,1111122 
DISL,ioos:station:DISL:KATA:1,2012-12-05T16:30:00Z,30.2583,-88.2131,3.821,31.33,1111122 
DISL,ioos:station:DISL:KATA:1,2012-12-05T17:00:00Z,30.2583,-88.2131,3.826,31.36,1111122 
DISL,ioos:station:DISL:KATA:1,2012-12-05T17:30:00Z,30.2583,-88.2131,3.836,31.35,1111122 
DISL,ioos:station:DISL:KATA:1,2012-12-05T18:00:00Z,30.2583,-88.2131,3.849,31.35,1111122 
DISL,ioos:station:DISL:KATA:1,2012-12-05T18:30:00Z,30.2583,-88.2131,3.869,31.37,1111122 
DISL,ioos:station:DISL:KATA:1,2012-12-05T19:00:00Z,30.2583,-88.2131,3.86,31.39,1111122 
DISL,ioos:station:DISL:KATA:1,2012-12-05T19:30:00Z,30.2583,-88.2131,3.875,31.42,1111122 
DISL,ioos:station:DISL:KATA:1,2012-12-05T20:00:00Z,30.2583,-88.2131,3.895,31.44,1111122 
DISL,ioos:station:DISL:KATA:1,2012-12-05T20:30:00Z,30.2583,-88.2131,3.9,31.47,1111122 
DISL,ioos:station:DISL:KATA:1,2012-12-05T21:00:00Z,30.2583,-88.2131,3.91,31.52,1111122 
DISL,ioos:station:DISL:KATA:1,2012-12-05T21:30:00Z,30.2583,-88.2131,3.939,31.56,1111122 
DISL,ioos:station:DISL:KATA:1,2012-12-05T22:00:00Z,30.2583,-88.2131,3.96,31.58,1111122 
DISL,ioos:station:DISL:KATA:1,2012-12-05T22:30:00Z,30.2583,-88.2131,3.979,31.58,1111122 
DISL,ioos:station:DISL:KATA:1,2012-12-05T23:00:00Z,30.2583,-88.2131,3.999,31.62,1111122 
DISL,ioos:station:DISL:KATA:1,2012-12-05T23:30:00Z,30.2583,-88.2131,4.017,31.62,1111122 
DISL,ioos:station:DISL:KATA:1,2012-12-06T00:00:00Z,30.2583,-88.2131,4.036,31.63,1111122 
DISL,ioos:station:DISL:KATA:1,2012-12-06T00:30:00Z,30.2583,-88.2131,4.052,31.67,1111122 
DISL,ioos:station:DISL:KATA:1,2012-12-06T01:00:00Z,30.2583,-88.2131,4.068,31.69,1111122 
DISL,ioos:station:DISL:KATA:1,2012-12-06T01:30:00Z,30.2583,-88.2131,4.068,31.7,1111122 
DISL,ioos:station:DISL:KATA:1,2012-12-06T02:00:00Z,30.2583,-88.2131,4.069,31.7,1111122 
DISL,ioos:station:DISL:KATA:1,2012-12-06T02:30:00Z,30.2583,-88.2131,4.078,31.69,1111122 
DISL,ioos:station:DISL:KATA:1,2012-12-06T03:00:00Z,30.2583,-88.2131,4.086,31.68,1111122 
DISL,ioos:station:DISL:KATA:1,2012-12-06T03:30:00Z,30.2583,-88.2131,4.09,31.65,1111122 
DISL,ioos:station:DISL:KATA:1,2012-12-06T04:00:00Z,30.2583,-88.2131,4.098,31.66,1111122 
DISL,ioos:station:DISL:KATA:1,2012-12-06T04:30:00Z,30.2583,-88.2131,4.109,31.66,1111122 
DISL,ioos:station:DISL:KATA:1,2012-12-06T05:00:00Z,30.2583,-88.2131,4.117,31.67,1111122 
DISL,ioos:station:DISL:KATA:1,2012-12-06T05:30:00Z,30.2583,-88.2131,4.125,31.67,1111122 
DISL,ioos:station:DISL:KATA:1,2012-12-06T06:00:00Z,30.2583,-88.2131,4.117,31.7,1111122 
DISL,ioos:station:DISL:KATA:1,2012-12-06T06:30:00Z,30.2583,-88.2131,4.1,31.77,1111122 
DISL,ioos:station:DISL:KATA:1,2012-12-06T07:00:00Z,30.2583,-88.2131,4.089,31.79,1111122 
DISL,ioos:station:DISL:KATA:1,2012-12-06T07:30:00Z,30.2583,-88.2131,4.087,31.81,1111122 
DISL,ioos:station:DISL:KATA:1,2012-12-06T08:00:00Z,30.2583,-88.2131,4.077,31.82,1111122 
DISL,ioos:station:DISL:KATA:1,2012-12-06T08:30:00Z,30.2583,-88.2131,4.068,31.82,1111122 
DISL,ioos:station:DISL:KATA:1,2012-12-06T09:00:00Z,30.2583,-88.2131,4.055,31.82,1111122 
DISL,ioos:station:DISL:KATA:1,2012-12-06T09:30:00Z,30.2583,-88.2131,4.038,31.82,1111122 
DISL,ioos:station:DISL:KATA:1,2012-12-06T10:00:00Z,30.2583,-88.2131,4.022,31.81,1111122 
DISL,ioos:station:DISL:KATA:1,2012-12-06T10:30:00Z,30.2583,-88.2131,4.011,31.82,1111122 
DISL,ioos:station:DISL:KATA:1,2012-12-06T11:00:00Z,30.2583,-88.2131,4.006,31.82,1111122 
DISL,ioos:station:DISL:KATA:1,2012-12-06T11:30:00Z,30.2583,-88.2131,3.989,31.83,1111122 
DISL,ioos:station:DISL:KATA:1,2012-12-06T12:00:00Z,30.2583,-88.2131,3.984,31.82,1111122 
DISL,ioos:station:DISL:KATA:1,2012-12-06T12:30:00Z,30.2583,-88.2131,3.964,31.82,1111122 
DISL,ioos:station:DISL:KATA:1,2012-12-06T13:00:00Z,30.2583,-88.2131,3.935,31.82,1111122 
DISL,ioos:station:DISL:KATA:1,2012-12-06T13:30:00Z,30.2583,-88.2131,3.917,31.82,1111122 
DISL,ioos:station:DISL:KATA:1,2012-12-06T14:00:00Z,30.2583,-88.2131,3.893,31.82,1111122 